Location: Landeleau
(48.2273°N, 3.7285°W)
Time: 05:44:57
(UTC+00:00)

STARLINK-1138 - Pass Details

Date: 30 March 2020
Orbit: 549 x 551 km, 53.0° (Epoch: 29 May)

Event Time Altitude Azimuth Distance (km) Brightness Sun altitude
Rises 19:08:38 0° 225° (SW) 2,711 7.7 -5.0°
Reaches altitude 10° 19:10:54 10° 220° (SW) 1,821 6.7 -5.4°
Maximum altitude 19:14:54 51° 145° (SE) 701 3.9 -6.1°
Drops below altitude 10° 19:18:56 10° 69° (ENE) 1,831 5.8 -6.7°
Enters shadow 19:20:32 - 66° (ENE) 2,456 6.5 -7.0°
